TimeCDT,TemperatureF,Dew PointF,Humidity,Sea Level PressureIn,VisibilityMPH,Wind Direction,Wind SpeedMPH,Gust SpeedMPH,PrecipitationIn,Events,Conditions,WindDirDegrees,DateUTC
12:56 AM,51.1,50.0,96,30.06,10.0,Calm,Calm,-,N/A,,Clear,0,2013-04-02 05:56:00
1:56 AM,48.9,48.0,97,30.06,8.0,Calm,Calm,-,0.00,,Clear,0,2013-04-02 06:56:00
2:48 AM,48.2,46.4,93,30.05,1.2,Calm,Calm,-,0.00,Rain,Light Rain,0,2013-04-02 07:48:00
2:50 AM,48.2,46.4,93,30.05,0.8,Calm,Calm,-,0.00,Rain,Light Rain,0,2013-04-02 07:50:00
2:56 AM,48.0,48.0,100,30.05,0.8,Calm,Calm,-,0.00,,Mist,0,2013-04-02 07:56:00
3:07 AM,48.2,48.2,100,30.05,1.5,Calm,Calm,-,N/A,,Partly Cloudy,0,2013-04-02 08:07:00
3:09 AM,50.0,48.2,94,30.05,3.0,Calm,Calm,-,N/A,,Partly Cloudy,0,2013-04-02 08:09:00
3:56 AM,51.1,51.1,100,30.06,9.0,NNW,4.6,-,0.00,Rain,Light Rain,330,2013-04-02 08:56:00
4:24 AM,50.0,50.0,100,30.05,1.8,Calm,Calm,-,0.00,,Clear,0,2013-04-02 09:24:00
4:34 AM,51.8,50.0,94,30.05,0.8,Calm,Calm,-,0.00,,Clear,0,2013-04-02 09:34:00
4:40 AM,51.8,51.8,100,30.05,2.0,NNW,3.5,-,0.00,,Clear,340,2013-04-02 09:40:00
4:47 AM,48.2,48.2,100,30.06,6.0,NW,3.5,-,0.00,,Clear,320,2013-04-02 09:47:00
4:56 AM,48.9,48.0,97,30.06,4.0,Calm,Calm,-,0.00,,Clear,0,2013-04-02 09:56:00
4:59 AM,48.2,46.4,93,30.05,1.8,Calm,Calm,-,N/A,,Clear,0,2013-04-02 09:59:00
5:19 AM,48.2,48.2,100,30.06,0.5,Calm,Calm,-,N/A,Fog,Fog,0,2013-04-02 10:19:00
5:28 AM,48.2,48.2,100,30.06,2.0,NNW,3.5,-,0.00,Rain,Light Rain,340,2013-04-02 10:28:00
5:36 AM,48.2,48.2,100,30.06,10.0,Calm,Calm,-,0.00,Rain,Light Rain,0,2013-04-02 10:36:00
5:56 AM,46.9,46.9,100,30.07,7.0,Calm,Calm,-,N/A,,Clear,0,2013-04-02 10:56:00
6:56 AM,46.0,46.0,100,30.08,7.0,Calm,Calm,-,N/A,Fog,Shallow Fog,0,2013-04-02 11:56:00
7:56 AM,59.0,54.0,83,30.10,10.0,NNE,3.5,-,N/A,,Mostly Cloudy,20,2013-04-02 12:56:00
8:56 AM,66.9,48.9,52,30.12,10.0,ENE,11.5,-,N/A,,Mostly Cloudy,60,2013-04-02 13:56:00
9:56 AM,69.1,50.0,51,30.14,10.0,ENE,6.9,-,N/A,,Mostly Cloudy,60,2013-04-02 14:56:00
10:56 AM,73.9,45.0,35,30.14,10.0,ESE,10.4,-,N/A,,Mostly Cloudy,110,2013-04-02 15:56:00
11:56 AM,73.0,50.0,44,30.13,10.0,SE,11.5,-,N/A,,Mostly Cloudy,130,2013-04-02 16:56:00
12:56 PM,72.0,51.1,48,30.12,10.0,SE,10.4,-,N/A,,Mostly Cloudy,130,2013-04-02 17:56:00
1:56 PM,73.9,50.0,43,30.09,10.0,SE,9.2,-,N/A,,Mostly Cloudy,130,2013-04-02 18:56:00
2:56 PM,73.9,53.1,48,30.07,10.0,SSE,10.4,-,N/A,,Mostly Cloudy,160,2013-04-02 19:56:00
3:56 PM,73.0,52.0,48,30.05,10.0,SE,6.9,-,N/A,,Mostly Cloudy,140,2013-04-02 20:56:00
4:56 PM,72.0,46.9,41,30.04,10.0,SE,6.9,-,N/A,,Mostly Cloudy,130,2013-04-02 21:56:00
5:56 PM,70.0,55.0,59,30.04,10.0,SE,4.6,-,N/A,,Mostly Cloudy,140,2013-04-02 22:56:00
6:56 PM,66.9,57.0,70,30.04,10.0,SSE,5.8,-,N/A,,Mostly Cloudy,150,2013-04-02 23:56:00
7:56 PM,66.0,57.9,75,30.04,10.0,SE,4.6,-,N/A,,Mostly Cloudy,140,2013-04-03 00:56:00
8:56 PM,66.9,60.1,79,30.05,10.0,SSE,4.6,-,N/A,,Mostly Cloudy,150,2013-04-03 01:56:00
9:56 PM,66.0,59.0,78,30.06,10.0,SE,4.6,-,N/A,,Clear,140,2013-04-03 02:56:00
10:56 PM,64.9,61.0,87,30.04,10.0,SE,3.5,-,N/A,,Clear,130,2013-04-03 03:56:00
11:56 PM,64.9,62.1,90,30.03,10.0,ESE,4.6,-,N/A,,Partly Cloudy,120,2013-04-03 04:56:00